Location: Veyrier
(46.1830°N, 6.2000°E)
Time: 12:33:42
(UTC+02:00)

Daily predictions for brighter satellites

Satellite Brightness Start Highest point End
(mag) Time Altitude Azimuth Time Altitude Azimuth Time Altitude Azimuth
YAOGAN 11 4.4 21:40:01 10° S 21:44:33 76° WSW 21:49:08 10° NNW
Cosmos 2074 Rocket 4.3 21:42:11 10° SSW 21:48:27 76° W 21:54:45 10° N
H-2A R/B 2.1 21:45:27 10° SSE 21:49:40 64° ENE 21:53:51 10° N
Cosmos 407 Rocket 3.9 21:45:07 10° NNW 21:50:22 69° WSW 21:55:38 10° S
ERS-1 Rocket 3.1 21:45:39 10° SSE 21:50:41 82° WSW 21:55:46 10° NNW
CZ-4 DEB 3.8 21:47:51 10° S 21:50:54 45° W 21:53:59 10° NNW
CENTAUR R/B 4.4 21:46:08 10° NW 21:53:08 36° WSW 22:00:26 10° S
Cosmos 1862 3.6 21:50:06 10° S 21:54:02 50° E 21:58:00 10° NNE
Cosmos 1140 Rocket 3.8 21:49:09 10° NNW 21:54:12 53° ENE 21:59:15 10° SE
ALOS 4.2 21:51:28 10° SSW 21:55:34 30° W 21:59:42 10° NNW
Cosmos 1606 2.8 21:55:05 10° N 21:59:02 88° W 22:02:57 10° S
SL-8 R/B 3.8 21:56:19 10° WSW 22:01:09 82° NNW 22:05:59 10° ENE
Nadezhda 3 Rocket 4.1 21:56:06 10° N 22:02:30 82° E 22:08:52 10° S
COSMOS 2487 2.5 21:59:47 10° NNW 22:03:25 81° ENE 22:07:01 10° SSE
ATLAS 5 CENTAUR R/B 4.1 21:58:42 10° WNW 22:03:44 28° WSW 22:09:00 10° S
H-2A R/B 3.7 22:00:05 10° ESE 22:04:00 21° ENE 22:07:52 10° NNE
Cosmos 1452 Rocket 3.5 21:59:38 10° SSW 22:04:52 72° ESE 22:10:09 10° NNE
ARGOS 3.9 22:00:27 10° SE 22:05:20 37° ENE 22:10:14 10° N
CZ-4B R/B 4.4 22:02:17 10° NE 22:06:27 26° E 22:10:28 10° SSE
Okean 3 3.5 22:05:56 10° N 22:10:15 74° E 22:14:29 10° SSE
Cosmos 1782 4.5 22:12:49 10° NNW 22:16:29 33° W 22:20:07 10° SSW
USA 229 DEB 4.1 22:10:29 10° NW 22:17:29 59° NE 22:23:47 13° ESE
USA 229 4.1 22:10:35 10° NW 22:17:35 59° NE 22:23:53 13° ESE
DNEPR-1 R/B 3.9 22:12:18 10° NW 22:17:56 89° NE 22:21:51 15° SE
SPOT 1/Viking Rocket 3.9 22:14:32 12° SE 22:19:11 53° ENE 22:24:17 10° N
SL-08 RB Rocket 4.5 22:16:52 14° SE 22:20:25 38° ENE 22:24:44 10° N
Okean 2 Rocket 3.1 22:17:02 10° S 22:21:22 58° E 22:25:43 10° NNE
Terra 3.3 22:21:14 13° ESE 22:24:22 23° ENE 22:28:05 10° NNE
CZ-4 SHROUD 3.1 22:22:09 15° SSE 22:24:39 79° ENE 22:27:45 10° N
Cosmos 1238 Rocket 2.9 22:22:59 10° NNW 22:26:12 62° W 22:29:56 10° S
PSLV R/B 3.0 22:23:54 15° SSE 22:26:17 90° SSW 22:29:15 10° NNW
Cosmos 1833 Rocket 3.2 22:20:59 10° NNW 22:26:25 47° ENE 22:30:40 16° SE
Cosmos 2341 Rocket 4.1 22:25:31 10° S 22:31:50 88° W 22:38:08 10° N
Cosmos 2278 Rocket 2.2 22:26:25 10° SSW 22:32:06 88° ESE 22:37:49 10° NNE
Cosmos 1782 Rocket 3.6 22:28:18 10° S 22:32:46 88° W 22:37:17 10° N
MetOp-A 4.2 22:27:42 10° SSE 22:33:03 82° WSW 22:38:27 10° NNW
SPOT 5 3.4 22:27:58 10° S 22:33:15 71° WSW 22:38:39 10° NNW
Cosmos 1844 Rocket 3.8 22:27:49 10° SW 22:33:17 49° WNW 22:38:46 10° NNE
Cosmos 1939 Rocket 4.4 22:30:41 10° SSW 22:34:13 33° W 22:37:49 10° NNW
Cosmos 1850 Rocket 4.0 22:29:18 10° NNW 22:34:40 87° ENE 22:38:58 16° SSE
Cosmos 1844 4.4 22:31:53 10° SW 22:37:36 60° WNW 22:43:22 10° NNE
Cosmos 1242 Rocket 2.7 22:34:35 10° NNW 22:38:15 76° WSW 22:41:10 16° S
CZ-3C R/B 4.4 22:33:07 10° SW 22:40:27 13° SSW 22:44:38 10° S
YAOGAN 6 2.7 22:38:02 16° S 22:40:47 72° WSW 22:44:20 10° NNW
SL-8 Rocket 4.0 22:36:49 10° S 22:43:02 70° E 22:49:14 10° NNE
Cosmos 1408 3.6 22:39:48 10° SSW 22:43:20 47° WNW 22:46:52 10° N
Cosmos 1184 Rocket 3.6 22:41:06 10° SSW 22:44:21 52° WNW 22:47:39 10° N
Timation 2 Rocket 4.1 22:38:30 10° NNW 22:44:28 69° WSW 22:49:15 16° SSE
Cosmos 1975 Rocket 3.6 22:40:57 10° NNW 22:45:11 56° W 22:49:19 11° S
Lacrosse 5 4.0 22:48:41 10° E 22:48:41 10° E 22:48:51 10° E
ISS -3.4 22:45:29 10° WSW 22:48:44 89° NNW 22:52:00 10° ENE
CARTOSAT-1 4.4 22:47:11 21° ESE 22:49:21 35° ENE 22:53:18 10° N
Cosmos 2082 Rocket 2.2 22:43:47 10° NNW 22:49:32 83° ENE 22:53:24 21° SSE
Cosmos 2084 4.1 22:47:24 10° WSW 22:51:09 51° NW 22:54:55 10° NNE
Meteor 1-14 Rocket 4.2 22:46:28 10° S 22:52:07 72° E 22:57:41 10° NNE
Cosmos 1825 3.7 22:49:13 10° SW 22:52:47 37° WNW 22:56:23 10° N
Okean 1 4.3 22:50:28 10° N 22:54:09 32° ENE 22:55:40 24° ESE
Cosmos 1741 Rocket 4.3 22:50:17 10° NNW 22:55:28 65° WSW 22:59:16 18° S
Cosmos 1536 Rocket 3.6 22:53:38 10° N 22:58:06 66° E 23:00:30 27° SSE
NOSS 3-1 (C) 4.5 22:58:20 10° NW 23:05:30 53° NE 23:11:32 18° ESE
Cosmos 2297 3.7 23:02:24 10° SSW 23:08:07 88° ESE 23:13:54 10° NNE
AVUM R/B 3.3 23:05:30 10° NNW 23:09:03 80° ENE 23:10:06 43° SE
Cosmos 1110 Rocket 4.2 23:10:08 26° SSE 23:12:47 48° ESE 23:17:47 10° NNE
Cosmos 864 Rocket 4.4 23:08:15 16° S 23:13:14 80° E 23:19:26 10° N
USA 245 4.4 23:12:55 19° SSW 23:15:01 38° W 23:19:00 10° NNW
Cosmos 1812 2.7 23:13:32 10° N 23:17:24 68° E 23:18:35 41° SSE
USA 234 3.8 23:11:39 10° ENE 23:17:32 35° SE 23:21:32 18° S
CZ-4 R/B 3.8 23:17:50 10° NNE 23:22:33 81° WNW 23:25:55 19° SSW
APEX 4.4 23:18:59 10° SW 23:23:04 56° NW 23:28:27 10° NNE
Cosmos 2366 rocket 4.1 23:18:24 14° S 23:23:57 82° W 23:30:21 10° N
Gbstr 26 Del rocket 3.1 23:21:15 10° WNW 23:26:25 81° NNE 23:28:16 34° ESE
Cosmos 2151 Rocket 4.0 23:24:19 18° SSW 23:27:36 64° W 23:32:07 10° N
IGS 5A 3.4 23:28:31 42° SSE 23:29:51 80° ENE 23:34:03 10° N
Cosmos 1025 Rocket 4.0 23:29:35 10° N 23:33:35 32° ENE 23:34:29 30° E
Cosmos 1486 Rocket 4.1 23:31:20 10° NNW 23:36:41 71° ENE 23:38:44 38° SE
Lacrosse 5 rocket 3.4 23:40:37 14° ENE 23:40:37 14° ENE 23:41:13 10° ENE
Cosmos 2369 Rocket 3.4 23:39:48 24° ESE 23:39:53 24° ESE 23:44:17 10° NE
Timation 1 Rocket 4.2 23:37:54 16° SSW 23:42:46 82° ESE 23:48:47 10° NNE
H-2A R/B 2.4 23:40:18 30° S 23:42:58 64° WSW 23:48:14 10° NNW
Cosmos 1300 Rocket 3.5 23:42:29 44° S 23:43:52 82° E 23:48:20 10° N
SL-8 R/B 4.0 23:39:09 10° WNW 23:43:58 68° N 23:47:24 19° E
ARGOS 4.4 23:41:56 16° SSW 23:45:36 33° W 23:50:26 10° NNW
Meteor 1-19 Rocket 4.5 23:41:30 10° N 23:47:19 59° ENE 23:49:25 38° SE
Okean 1 Rocket 3.0 23:47:07 48° S 23:48:19 79° E 23:52:48 10° NNE
BREEZE-M DEB (TANK) 2.8 23:47:43 10° WNW 23:49:59 49° N 23:55:08 10° E
